Location: *
(40.4000°N, 15.1200°E)
Time: 05:29:02
(UTC+00:00)

SPOT 1/Viking Rocket - Pass Details

Date: 09 April 2020
Orbit: 776 x 795 km, 98.5° (Epoch: 05 June)

Event Time Altitude Azimuth Distance (km) Brightness Sun altitude
Exits shadow 19:50:05 40° 57° (ENE) 1,165 4.2 -24.7°
Drops below altitude 10° 19:54:32 10° 2° (N) 2,372 6.5 -25.4°
Sets 19:56:58 0° 355° (N) 3,306 7.4 -25.7°
